| time (UTC) | temp C | wind direction | speed KPH | gust KPH | rain 1hr cm | rain 24hr cm | rain mn cm | humidity % | barometer mb |
| 20260503200240 | 28 | 218 | 1.6 | 3.2 | 0.00 | 0.00 | 0.00 | 34 | 1019.7 |
| 20260503195737 | 28 | 254 | 4.8 | 9.7 | 0.00 | 0.00 | 0.00 | 34 | 1019.8 |
| 20260503195233 | 28 | 115 | 4.8 | 8.0 | 0.00 | 0.00 | 0.00 | 34 | 1019.8 |
| 20260503194732 | 28 | 232 | 1.6 | 3.2 | 0.00 | 0.00 | 0.00 | 34 | 1020.1 |
| 20260503194227 | 28 | 204 | 1.6 | 3.2 | 0.00 | 0.00 | 0.00 | 33 | 1019.9 |
| 20260503193723 | 28 | 213 | 0.0 | 1.6 | 0.00 | 0.00 | 0.00 | 36 | 1020.1 |
| 20260503193219 | 28 | 153 | 4.8 | 9.7 | 0.00 | 0.00 | 0.00 | 34 | 1020.3 |
| 20260503192715 | 27 | 134 | 3.2 | 4.8 | 0.00 | 0.00 | 0.00 | 34 | 1020.2 |
| 20260503192210 | 28 | 186 | 3.2 | 3.2 | 0.00 | 0.00 | 0.00 | 35 | 1020.5 |
| 20260503191708 | 28 | 230 | 1.6 | 3.2 | 0.00 | 0.00 | 0.00 | 36 | 1020.5 |
| 20260503191205 | 28 | 204 | 3.2 | 4.8 | 0.00 | 0.00 | 0.00 | 37 | 1020.5 |
| 20260503190701 | 28 | 230 | 1.6 | 3.2 | 0.00 | 0.00 | 0.00 | 37 | 1020.5 |
| 20260503190158 | 27 | 206 | 4.8 | 9.7 | 0.00 | 0.00 | 0.00 | 38 | 1020.5 |
| 20260503185655 | 28 | 201 | 1.6 | 1.6 | 0.00 | 0.00 | 0.00 | 37 | 1020.6 |
| 20260503185150 | 28 | 243 | 3.2 | 3.2 | 0.00 | 0.00 | 0.00 | 37 | 1020.6 |
| 20260503184645 | 27 | 177 | 6.4 | 8.0 | 0.00 | 0.00 | 0.00 | 39 | 1020.7 |
| 20260503184142 | 28 | 181 | 4.8 | 9.7 | 0.00 | 0.00 | 0.00 | 36 | 1020.7 |
| 20260503183638 | 28 | 199 | 4.8 | 4.8 | 0.00 | 0.00 | 0.00 | 36 | 1020.8 |
| 20260503183136 | 28 | 193 | 6.4 | 9.7 | 0.00 | 0.00 | 0.00 | 36 | 1020.8 |
| 20260503182634 | 27 | 181 | 1.6 | 3.2 | 0.00 | 0.00 | 0.00 | 37 | 1021.2 |
| 20260503182132 | 28 | 202 | 3.2 | 3.2 | 0.00 | 0.00 | 0.00 | 38 | 1021.2 |
| 20260503181629 | 28 | 251 | 6.4 | 8.0 | 0.00 | 0.00 | 0.00 | 37 | 1021.4 |
| 20260503181125 | 27 | 268 | 1.6 | 3.2 | 0.00 | 0.00 | 0.00 | 38 | 1021.3 |
| 20260503180622 | 27 | 198 | 6.4 | 11.3 | 0.00 | 0.00 | 0.00 | 39 | 1021.5 |
| 20260503180120 | 27 | 219 | 6.4 | 9.7 | 0.00 | 0.00 | 0.00 | 39 | 1021.6 |
| 20260503175617 | 27 | 161 | 6.4 | 8.0 | 0.00 | 0.00 | 0.00 | 38 | 1021.7 |
| 20260503175114 | 26 | 199 | 6.4 | 9.7 | 0.00 | 0.00 | 0.00 | 40 | 1021.7 |
| 20260503174611 | 27 | 272 | 4.8 | 4.8 | 0.00 | 0.00 | 0.00 | 39 | 1022.0 |
| 20260503174108 | 27 | 225 | 4.8 | 8.0 | 0.00 | 0.00 | 0.00 | 43 | 1022.0 |
| 20260503173603 | 27 | 190 | 1.6 | 3.2 | 0.00 | 0.00 | 0.00 | 40 | 1022.1 |
| 20260503173059 | 27 | 122 | 4.8 | 8.0 | 0.00 | 0.00 | 0.00 | 38 | 1022.2 |
| 20260503172556 | 27 | 200 | 1.6 | 1.6 | 0.00 | 0.00 | 0.00 | 42 | 1022.0 |
| 20260503172054 | 27 | 171 | 1.6 | 3.2 | 0.00 | 0.00 | 0.00 | 43 | 1022.2 |
| 20260503171550 | 26 | 162 | 4.8 | 11.3 | 0.00 | 0.00 | 0.00 | 43 | 1022.5 |
| 20260503171048 | 26 | 189 | 4.8 | 4.8 | 0.00 | 0.00 | 0.00 | 44 | 1022.4 |
| 20260503170544 | 26 | 219 | 3.2 | 3.2 | 0.00 | 0.00 | 0.00 | 45 | 1022.3 |
| 20260503150937 | 23 | 259 | 1.6 | 3.2 | 0.00 | 0.00 | 0.00 | 50 | 1022.6 |
| 20260503150433 | 22 | 169 | 3.2 | 3.2 | 0.00 | 0.00 | 0.00 | 50 | 1022.7 |
| 20260503131326 | 16 | 198 | 0.0 | 1.6 | 0.00 | 0.00 | 0.00 | 70 | 1022.5 |
| 20260503130824 | 16 | 187 | 0.0 | 1.6 | 0.00 | 0.00 | 0.00 | 70 | 1022.7 |
| 20260503130321 | 16 | 196 | 1.6 | 1.6 | 0.00 | 0.00 | 0.00 | 72 | 1022.5 |
| 20260503110714 | 11 | 206 | 0.0 | 0.0 | 0.00 | 0.00 | 0.00 | 83 | 1021.8 |
| 20260503110212 | 11 | 206 | 0.0 | 0.0 | 0.00 | 0.00 | 0.00 | 83 | 1021.9 |
| 20260503100132 | 12 | 206 | 0.0 | 0.0 | 0.00 | 0.00 | 0.00 | 78 | 1021.8 |
| 20260503081521 | 15 | 197 | 0.0 | 0.0 | 0.00 | 0.00 | 0.00 | 64 | 1021.6 |
| 20260503081019 | 15 | 198 | 0.0 | 1.6 | 0.00 | 0.00 | 0.00 | 64 | 1021.6 |
| 20260503080515 | 16 | 195 | 0.0 | 0.0 | 0.00 | 0.00 | 0.00 | 64 | 1021.7 |
| 20260503072449 | 15 | 186 | 0.0 | 0.0 | 0.00 | 0.00 | 0.00 | 64 | 1021.5 |
| 20260503071945 | 16 | 197 | 0.0 | 0.0 | 0.00 | 0.00 | 0.00 | 64 | 1021.7 |
| 20260503071442 | 16 | 196 | 0.0 | 0.0 | 0.00 | 0.00 | 0.00 | 63 | 1021.8 |
| 20260503070938 | 16 | 197 | 1.6 | 1.6 | 0.00 | 0.00 | 0.00 | 62 | 1021.6 |
| 20260503070436 | 16 | 199 | 1.6 | 1.6 | 0.00 | 0.00 | 0.00 | 62 | 1021.7 |
| 20260503054849 | 17 | 183 | 1.6 | 3.2 | 0.00 | 0.00 | 0.00 | 57 | 1021.6 |
| 20260503054345 | 17 | 191 | 1.6 | 3.2 | 0.00 | 0.00 | 0.00 | 57 | 1021.6 |
| 20260503053843 | 17 | 191 | 0.0 | 1.6 | 0.00 | 0.00 | 0.00 | 57 | 1021.7 |
| 20260503053341 | 17 | 196 | 1.6 | 1.6 | 0.00 | 0.00 | 0.00 | 57 | 1021.6 |
| 20260503052837 | 17 | 192 | 1.6 | 1.6 | 0.00 | 0.00 | 0.00 | 57 | 1021.8 |
| 20260503052334 | 17 | 183 | 1.6 | 1.6 | 0.00 | 0.00 | 0.00 | 57 | 1021.4 |
| 20260503051830 | 17 | 195 | 0.0 | 1.6 | 0.00 | 0.00 | 0.00 | 57 | 1021.4 |
| 20260503051327 | 17 | 191 | 1.6 | 1.6 | 0.00 | 0.00 | 0.00 | 56 | 1021.4 |
| 20260503050824 | 17 | 185 | 3.2 | 3.2 | 0.00 | 0.00 | 0.00 | 56 | 1021.4 |
| 20260503050320 | 17 | 191 | 1.6 | 3.2 | 0.00 | 0.00 | 0.00 | 56 | 1021.5 |
| 20260503045818 | 17 | 186 | 1.6 | 1.6 | 0.00 | 0.00 | 0.00 | 56 | 1021.4 |
| 20260503045315 | 17 | 192 | 1.6 | 1.6 | 0.00 | 0.00 | 0.00 | 55 | 1021.6 |
| 20260503044811 | 18 | 193 | 1.6 | 1.6 | 0.00 | 0.00 | 0.00 | 55 | 1021.6 |
| 20260503044308 | 18 | 184 | 1.6 | 1.6 | 0.00 | 0.00 | 0.00 | 54 | 1021.5 |
| 20260503043806 | 18 | 185 | 1.6 | 3.2 | 0.00 | 0.00 | 0.00 | 54 | 1021.5 |
| 20260503043303 | 18 | 193 | 1.6 | 1.6 | 0.00 | 0.00 | 0.00 | 53 | 1021.6 |
| 20260503042758 | 18 | 192 | 1.6 | 1.6 | 0.00 | 0.00 | 0.00 | 52 | 1021.7 |
| 20260503042255 | 18 | 187 | 3.2 | 3.2 | 0.00 | 0.00 | 0.00 | 52 | 1021.5 |
| 20260503041751 | 18 | 191 | 1.6 | 1.6 | 0.00 | 0.00 | 0.00 | 52 | 1021.5 |
| 20260503041249 | 18 | 191 | 1.6 | 1.6 | 0.00 | 0.00 | 0.00 | 51 | 1021.5 |
| 20260503040747 | 18 | 185 | 1.6 | 1.6 | 0.00 | 0.00 | 0.00 | 51 | 1021.4 |
| 20260503040244 | 18 | 187 | 1.6 | 1.6 | 0.00 | 0.00 | 0.00 | 51 | 1021.4 |
| 20260503035740 | 18 | 202 | 1.6 | 1.6 | 0.00 | 0.00 | 0.00 | 52 | 1021.5 |
| 20260503035238 | 18 | 185 | 0.0 | 3.2 | 0.00 | 0.00 | 0.00 | 52 | 1021.3 |
| 20260503034735 | 18 | 197 | 1.6 | 1.6 | 0.00 | 0.00 | 0.00 | 52 | 1021.5 |
| 20260503034232 | 18 | 197 | 1.6 | 1.6 | 0.00 | 0.00 | 0.00 | 52 | 1021.4 |
| 20260503033730 | 18 | 191 | 0.0 | 0.0 | 0.00 | 0.00 | 0.00 | 53 | 1021.5 |
| 20260503033227 | 18 | 197 | 0.0 | 0.0 | 0.00 | 0.00 | 0.00 | 53 | 1021.3 |
| 20260503032725 | 18 | 197 | 0.0 | 0.0 | 0.00 | 0.00 | 0.00 | 53 | 1021.2 |
| 20260503032224 | 19 | 197 | 0.0 | 0.0 | 0.00 | 0.00 | 0.00 | 51 | 1021.0 |
| 20260503031720 | 19 | 198 | 1.6 | 1.6 | 0.00 | 0.00 | 0.00 | 50 | 1021.3 |
| 20260503031218 | 19 | 198 | 1.6 | 3.2 | 0.00 | 0.00 | 0.00 | 50 | 1021.3 |
| 20260503030714 | 19 | 200 | 1.6 | 1.6 | 0.00 | 0.00 | 0.00 | 50 | 1021.2 |
| 20260503030211 | 19 | 202 | 1.6 | 1.6 | 0.00 | 0.00 | 0.00 | 50 | 1021.0 |
| 20260503025708 | 18 | 208 | 1.6 | 1.6 | 0.00 | 0.00 | 0.00 | 51 | 1021.2 |
| 20260503025205 | 19 | 210 | 0.0 | 0.0 | 0.00 | 0.00 | 0.00 | 51 | 1021.0 |
| 20260503024701 | 19 | 211 | 0.0 | 0.0 | 0.00 | 0.00 | 0.00 | 50 | 1021.3 |
| 20260503024159 | 19 | 212 | 0.0 | 1.6 | 0.00 | 0.00 | 0.00 | 50 | 1021.0 |
| 20260503023656 | 19 | 216 | 0.0 | 1.6 | 0.00 | 0.00 | 0.00 | 51 | 1021.1 |
| 20260503023152 | 19 | 216 | 0.0 | 0.0 | 0.00 | 0.00 | 0.00 | 51 | 1021.0 |
| 20260503022649 | 20 | 216 | 0.0 | 0.0 | 0.00 | 0.00 | 0.00 | 49 | 1020.9 |
| 20260503022148 | 20 | 220 | 0.0 | 0.0 | 0.00 | 0.00 | 0.00 | 48 | 1021.0 |
| 20260503021645 | 20 | 220 | 0.0 | 1.6 | 0.00 | 0.00 | 0.00 | 47 | 1021.0 |
| 20260503021142 | 20 | 224 | 0.0 | 0.0 | 0.00 | 0.00 | 0.00 | 47 | 1020.8 |
| 20260503020639 | 20 | 224 | 0.0 | 0.0 | 0.00 | 0.00 | 0.00 | 46 | 1020.7 |
| 20260503020137 | 20 | 225 | 0.0 | 0.0 | 0.00 | 0.00 | 0.00 | 46 | 1020.8 |
| 20260503015633 | 20 | 225 | 1.6 | 1.6 | 0.00 | 0.00 | 0.00 | 48 | 1020.6 |
| 20260503015130 | 20 | 226 | 0.0 | 0.0 | 0.00 | 0.00 | 0.00 | 49 | 1020.7 |
| 20260503014626 | 20 | 226 | 0.0 | 0.0 | 0.00 | 0.00 | 0.00 | 49 | 1020.4 |
| 20260503014124 | 20 | 227 | 0.0 | 0.0 | 0.00 | 0.00 | 0.00 | 48 | 1020.5 |
| 20260503013621 | 20 | 227 | 0.0 | 0.0 | 0.00 | 0.00 | 0.00 | 48 | 1020.6 |
| 20260503013119 | 20 | 227 | 0.0 | 0.0 | 0.00 | 0.00 | 0.00 | 48 | 1020.4 |
| 20260503012616 | 20 | 228 | 0.0 | 0.0 | 0.00 | 0.00 | 0.00 | 45 | 1020.5 |
| 20260503012113 | 21 | 228 | 0.0 | 0.0 | 0.00 | 0.00 | 0.00 | 45 | 1020.5 |
| 20260503011609 | 21 | 228 | 0.0 | 0.0 | 0.00 | 0.00 | 0.00 | 44 | 1020.4 |
| 20260503011107 | 21 | 231 | 0.0 | 0.0 | 0.00 | 0.00 | 0.00 | 43 | 1020.2 |
| 20260503010602 | 22 | 231 | 0.0 | 0.0 | 0.00 | 0.00 | 0.00 | 42 | 1020.5 |
| 20260503010100 | 22 | 232 | 0.0 | 0.0 | 0.00 | 0.00 | 0.00 | 42 | 1020.6 |
| 20260503005557 | 23 | 237 | 0.0 | 0.0 | 0.00 | 0.00 | 0.00 | 40 | 1020.4 |
| 20260503005054 | 23 | 237 | 0.0 | 0.0 | 0.00 | 0.00 | 0.00 | 39 | 1020.3 |
| 20260503004550 | 23 | 239 | 1.6 | 1.6 | 0.00 | 0.00 | 0.00 | 39 | 1020.2 |
| 20260503004049 | 23 | 235 | 0.0 | 0.0 | 0.00 | 0.00 | 0.00 | 39 | 1020.4 |
| 20260503003545 | 23 | 243 | 0.0 | 1.6 | 0.00 | 0.00 | 0.00 | 38 | 1019.9 |
| 20260503003042 | 23 | 258 | 0.0 | 1.6 | 0.00 | 0.00 | 0.00 | 38 | 1020.1 |
| 20260503002539 | 24 | 253 | 1.6 | 1.6 | 0.00 | 0.00 | 0.00 | 38 | 1020.1 |
| 20260503002036 | 24 | 226 | 1.6 | 3.2 | 0.00 | 0.00 | 0.00 | 38 | 1020.1 |
| 20260503001532 | 24 | 259 | 0.0 | 1.6 | 0.00 | 0.00 | 0.00 | 37 | 1019.8 |
| 20260503001030 | 24 | 246 | 3.2 | 4.8 | 0.00 | 0.00 | 0.00 | 36 | 1020.1 |
| 20260503000527 | 24 | 283 | 4.8 | 4.8 | 0.00 | 0.00 | 0.00 | 36 | 1020.1 |
| 20260503000024 | 24 | 299 | 1.6 | 3.2 | 0.00 | 0.00 | 0.00 | 36 | 1020.2 |
| 20260502235520 | 23 | 283 | 6.4 | 9.7 | 0.00 | 0.00 | 0.00 | 36 | 1020.2 |
| 20260502235019 | 25 | 279 | 3.2 | 4.8 | 0.00 | 0.00 | 0.00 | 36 | 1020.3 |
| 20260502234514 | 25 | 322 | 4.8 | 8.0 | 0.00 | 0.00 | 0.00 | 34 | 1020.3 |
| 20260502234013 | 25 | 243 | 1.6 | 1.6 | 0.00 | 0.00 | 0.00 | 35 | 1020.1 |
| 20260502233512 | 25 | 263 | 4.8 | 8.0 | 0.00 | 0.00 | 0.00 | 33 | 1020.2 |
| 20260502233010 | 25 | 244 | 3.2 | 4.8 | 0.00 | 0.00 | 0.00 | 34 | 1020.3 |
| 20260502232506 | 25 | 263 | 3.2 | 3.2 | 0.00 | 0.00 | 0.00 | 34 | 1020.2 |
| 20260502232003 | 25 | 293 | 1.6 | 3.2 | 0.00 | 0.00 | 0.00 | 34 | 1020.1 |
| 20260502231500 | 25 | 266 | 3.2 | 4.8 | 0.00 | 0.00 | 0.00 | 32 | 1020.2 |
| 20260502230958 | 25 | 217 | 0.0 | 1.6 | 0.00 | 0.00 | 0.00 | 34 | 1020.4 |
| 20260502230456 | 25 | 206 | 0.0 | 0.0 | 0.00 | 0.00 | 0.00 | 33 | 1020.2 |
| 20260502225954 | 26 | 332 | 3.2 | 4.8 | 0.00 | 0.00 | 0.00 | 32 | 1020.1 |
| 20260502225449 | 25 | 204 | 0.0 | 0.0 | 0.00 | 0.00 | 0.00 | 32 | 1020.3 |
| 20260502224946 | 25 | 201 | 1.6 | 1.6 | 0.00 | 0.00 | 0.00 | 33 | 1020.2 |
| 20260502224443 | 26 | 225 | 0.0 | 0.0 | 0.00 | 0.00 | 0.00 | 32 | 1020.3 |
| 20260502223939 | 26 | 261 | 1.6 | 1.6 | 0.00 | 0.00 | 0.00 | 34 | 1020.3 |
| 20260502223437 | 26 | 159 | 3.2 | 3.2 | 0.00 | 0.00 | 0.00 | 32 | 1020.4 |
| 20260502222935 | 25 | 72 | 0.0 | 0.0 | 0.00 | 0.00 | 0.00 | 33 | 1020.4 |
| 20260502222432 | 25 | 287 | 1.6 | 4.8 | 0.00 | 0.00 | 0.00 | 34 | 1020.4 |
| 20260502221928 | 26 | 287 | 1.6 | 3.2 | 0.00 | 0.00 | 0.00 | 32 | 1020.4 |
| 20260502221425 | 26 | 311 | 6.4 | 9.7 | 0.00 | 0.00 | 0.00 | 32 | 1020.5 |
| 20260502220922 | 26 | 331 | 4.8 | 9.7 | 0.00 | 0.00 | 0.00 | 32 | 1020.5 |
| 20260502220417 | 26 | 250 | 1.6 | 1.6 | 0.00 | 0.00 | 0.00 | 32 | 1020.5 |
| 20260502215914 | 26 | 304 | 4.8 | 4.8 | 0.00 | 0.00 | 0.00 | 32 | 1020.5 |
| 20260502215412 | 26 | 287 | 4.8 | 4.8 | 0.00 | 0.00 | 0.00 | 30 | 1020.5 |
| 20260502214908 | 26 | 133 | 1.6 | 1.6 | 0.00 | 0.00 | 0.00 | 32 | 1020.4 |
| 20260502214405 | 26 | 234 | 1.6 | 1.6 | 0.00 | 0.00 | 0.00 | 31 | 1020.6 |
| 20260502213903 | 26 | 254 | 4.8 | 8.0 | 0.00 | 0.00 | 0.00 | 32 | 1020.9 |
| 20260502213359 | 26 | 302 | 4.8 | 8.0 | 0.00 | 0.00 | 0.00 | 32 | 1020.7 |
| 20260502212859 | 25 | 259 | 3.2 | 3.2 | 0.00 | 0.00 | 0.00 | 31 | 1020.8 |
| 20260502212356 | 25 | 265 | 3.2 | 3.2 | 0.00 | 0.00 | 0.00 | 32 | 1020.9 |
| 20260502211853 | 26 | 266 | 4.8 | 8.0 | 0.00 | 0.00 | 0.00 | 31 | 1021.0 |
| 20260502211349 | 26 | 260 | 1.6 | 4.8 | 0.00 | 0.00 | 0.00 | 34 | 1020.8 |
| 20260502210847 | 25 | 271 | 3.2 | 3.2 | 0.00 | 0.00 | 0.00 | 32 | 1021.2 |
| 20260502210343 | 25 | 318 | 6.4 | 8.0 | 0.00 | 0.00 | 0.00 | 33 | 1021.0 |
| 20260502205841 | 25 | 258 | 0.0 | 1.6 | 0.00 | 0.00 | 0.00 | 34 | 1021.1 |
| 20260502205337 | 25 | 224 | 1.6 | 3.2 | 0.00 | 0.00 | 0.00 | 32 | 1021.2 |
| 20260502204834 | 25 | 280 | 6.4 | 9.7 | 0.00 | 0.00 | 0.00 | 33 | 1021.5 |
| 20260502204331 | 25 | 263 | 3.2 | 3.2 | 0.00 | 0.00 | 0.00 | 32 | 1021.4 |
| 20260502203828 | 25 | 242 | 0.0 | 0.0 | 0.00 | 0.00 | 0.00 | 35 | 1021.4 |
| 20260502203326 | 25 | 332 | 6.4 | 12.9 | 0.00 | 0.00 | 0.00 | 33 | 1021.3 |
| 20260502202826 | 26 | 302 | 1.6 | 3.2 | 0.00 | 0.00 | 0.00 | 32 | 1021.6 |
| 20260502202324 | 26 | 314 | 3.2 | 3.2 | 0.00 | 0.00 | 0.00 | 34 | 1021.4 |
| 20260502201822 | 25 | 93 | 3.2 | 4.8 | 0.00 | 0.00 | 0.00 | 33 | 1021.6 |
| 20260502201317 | 25 | 4 | 4.8 | 4.8 | 0.00 | 0.00 | 0.00 | 33 | 1021.7 |
| 20260502200814 | 25 | 206 | 0.0 | 1.6 | 0.00 | 0.00 | 0.00 | 34 | 1021.6 |